Regional Weather Roundup
Issued by NWS

Home | Current Version | Previous Version | Graphics & Text | Print | Product List | Glossary On
Versions: 1 2 3 4 5 6 7 8 9 10 11 12 13 14 15 16 17 18 19 20 21 22 23 24 25 26 27 28 29 30 31 32 33 34 35 36 37 38 39 40 41 42 43 44 45 46 47 48 49 50
000
ASUS43 KLOT 171308
RWRIL

ILLINOIS REGIONAL WEATHER ROUNDUP
NATIONAL WEATHER SERVICE CHICAGO/ROMEOVILLE IL
700 AM CST WED JAN 17 2018

NOTE: "FAIR" INDICATES FEW OR NO CLOUDS BELOW 12,000 FEET WITH NO
SIGNIFICANT WEATHER AND/OR OBSTRUCTIONS TO VISIBILITY.

* THESE STATIONS ARE NOT UNDER NWS QUALITY CONTROL. THEY ALSO MAY NOT
  REPORT WEATHER SUCH AS PRECIPITATION OR FOG.

ILZ001-002-007-009-015-016-024-171400-
NORTHWEST ILLINOIS

CITY           SKY/WX    TMP DP  RH WIND       PRES   REMARKS
MOLINE         FAIR      -1  -5  82 SW7       30.59S WCI -14
STERLING*      FAIR      -3  -6  87 SW5       30.57F WCI -13
SAVANNA*       FAIR      -3  -7  82 S5        30.57S WCI -14
$$

ILZ003-004-008-010-011-017-018-171400-
NORTH CENTRAL ILLINOIS

CITY           SKY/WX    TMP DP  RH WIND       PRES   REMARKS
ROCKFORD       FAIR      -4  -8  83 S5        30.55S WCI -15
FREEPORT*      FAIR      -3  -7  84 SW6       30.53F FOG     WCI -15
ROCHELLE*      FAIR      -5  -9  84 SW6       30.55S WCI -18
DE KALB*       FAIR      -1  -4  85 W8        30.52S WCI -15
PERU*          FAIR      -1  -5  84 W7        30.58S WCI -15
$$

ILZ005-006-012>014-019>023-171400-
NORTHEAST ILLINOIS

CITY           SKY/WX    TMP DP  RH WIND       PRES   REMARKS
CHICAGO-OHARE  FAIR       5   0  79 W7        30.52S WCI  -7
CHICAGO-MIDWAY FAIR       6   2  83 W6        30.53S WCI  -4
AURORA         FAIR      -5  -8  87 SW3       30.54S
LANSING*       FAIR       2  -1  89 CALM      30.54S
JOLIET*        FAIR       0  -3  85 CALM      30.57S
WAUKEGAN       FAIR       6   0  76 W5        30.48F WCI  -3
DUPAGE AIRPORT FAIR      -1  -4  87 SW6       30.52S FOG     WCI -13
KANKAKEE*      FAIR      -2  -7  81 W6        30.58R WCI -14
WHEELING       FAIR       6   2  83 W5        30.52F WCI  -3
MORRIS*        FAIR      -1  -5  82 W7        30.56S WCI -14
ROMEOVILLE*    FAIR      -2  -5  86 W3        30.55S
NORTHERLY ISL    N/A     10   5  80 W12         N/A  WCI  -4
$$

LMZ740>746-171400-
SOUTHERN LAKE MICHIGAN

STATION/POSITION SKY/WX   TEMP    WIND        PRES    VSBY  WAVE
                          AIR SEA DIR/SP/G                  HT/PER
                          (F)     (DEG/KT/KT) (MB)    (MI)  (FT/S)
HARRISON CRIB              13     280/ 11/ 13   N/A
BURNHAM HARBOR              9     220/  9/ 12   N/A
CALUMET HARBOR              7     240/  6/ 10 1033.0R
BURNS HARBOR                9     220/  7/  8 1034.2R
MICHIGAN CITY              12     190/  9/ 10   N/A
$$

ILZ025>027-034>036-040-047-049-050-058-095>099-171400-
WEST-CENTRAL ILLINOIS

CITY           SKY/WX    TMP DP  RH WIND       PRES   REMARKS
QUINCY         CLOUDY    -3  -6  87 SW6       30.64S WCI -15
GALESBURG*     FAIR      -3  -5  87 CALM      30.61S
MACOMB*        CLOUDY    -3  -6  87 W8        30.65R WCI -18
JACKSONVILLE*  CLOUDY    -2  -6  82 W6        30.65S WCI -14
PITTSFIELD*    CLOUDY     1  -3  83 W7        30.66R WCI -12
$$

ILZ028>032-037-038-041>044-048-051>054-059>061-171400-
CENTRAL ILLINOIS

CITY           SKY/WX    TMP DP  RH WIND       PRES   REMARKS
PONTIAC        FAIR      -3  -5  91 W6        30.59S WCI -15
BLOOMINGTON    FAIR      -2  -5  87 W8        30.58R WCI -17
DECATUR        FAIR       0  -2  91 W6        30.61S WCI -12
PEORIA         FAIR      -2  -7  79 W5        30.62R WCI -12
LACON*         FAIR      -2  -5  85 CALM      30.60S
LINCOLN*       FAIR       1  -2  86 CALM      30.62S
SPRINGFIELD    FAIR      -4  -8  83 W8        30.64S WCI -19
TAYLORVILLE    FAIR      -2  -6  84 W7        30.64S WCI -16
$$

ILZ033-039-045-046-055>057-062-063-171400-
EAST-CENTRAL ILLINOIS

CITY           SKY/WX    TMP DP  RH WIND       PRES   REMARKS
CHAMPAIGN      FAIR      -4  -8  83 W8        30.59S WCI -19
DANVILLE*      FAIR      -2  -5  84 W7        30.56R WCI -15
RANTOUL*       FAIR      -1  -4  86 W7        30.58S WCI -14
MATTOON        FAIR      -1  -4  87 W9        30.60S WCI -16
PARIS*         FAIR      -4  -8  86 W7        30.61S WCI -18
$$

ILZ079-100>102-171400-
SOUTHWEST ILLINOIS

CITY           SKY/WX    TMP DP  RH WIND       PRES   REMARKS
ALTON          CLEAR      0  -2  92 W5        30.67F WCI -10
BELLEVILLE     FAIR       4  -3  74 W3        30.67S
CAHOKIA*       FAIR       5  -1  76 W5        30.69S WCI  -4
SPARTA*        FAIR       6   2  86 W3        30.69S
$$

ILZ064>066-069>071-074>076-080>082-084>086-088>090-092>094-171400-
SOUTH-CENTRAL ILLINOIS

CITY           SKY/WX    TMP DP  RH WIND       PRES   REMARKS
CARBONDALE     FAIR       6   2  83 NW5       30.69S WCI  -3
CAIRO*         CLOUDY    10   6  81 NW7       30.71S WCI  -1
EFFINGHAM*     FAIR       0  -4  85 W6        30.65S WCI -12
MARION         CLEAR      3   1  92 NW5       30.69S WCI  -6
MT. VERNON     FAIR       2  -3  80 CALM      30.67S
CENTRALIA*     FAIR       4   0  86 CALM      30.66S
SALEM*         FAIR       4  -1  79 W3        30.66S
METROPOLIS*    FAIR       3   1  91 CALM      30.70S
$$

ILZ067-068-072-073-078-083-087-091-171400-
SOUTHEAST ILLINOIS

CITY           SKY/WX    TMP DP  RH WIND       PRES   REMARKS
LAWRENCEVILLE  FAIR      -3  -4  95 W5        30.66R WCI -13
FLORA*         FAIR       6   1  78 W9        30.66S WCI  -8
FAIRFIELD*     FAIR       3  -1  85 CALM      30.66S
HARRISBURG*    FAIR       3   1  91 CALM      30.69S
ROBINSON*      FAIR      -6  -9  87 SW3       30.65F
CARMI*         FAIR       2   0  88 W3        30.67S
$$

ABBREVIATIONS USED IN REMARKS
   TC - TEMPERATURE IN CELSIUS
  WCI - WIND CHILL INDEX
   HX - HEAT INDEX
  VSB - VISIBILITY
$$





USA.gov is the U.S. government's official web portal to all federal, state and local government web resources and services.